Theta_e
283 283 283 283 283 283 283 283 283 284 284 284 284 284 284 285 285 286 286 286 285 284 284 283 283 284 283 283 283 283 281 281 280 279 282 282 282 281 279 280 281 281 281
283 283 282 282 281 281 281 281 282 282 283 283 283 283 283 284 284 284 284 284 283 282 282 282 281 283 281 281 280 280 279 280 280 278 279 279 279 279 277 278 279 280 279
282 282 281 280 280 279 279 280 281 281 281 282 282 282 282 282 283 283 283 283 282 281 281 280 279 280 279 279 278 278 278 280 279 279 277 278 278 277 276 276 277 277 278
281 281 280 279 279 279 279 280 280 280 280 281 281 281 281 281 282 282 282 281 281 280 280 279 278 278 278 278 278 278 278 278 278 277 276 275 276 276 274 273 272 274 274
280 279 279 279 278 278 279 279 279 280 280 280 280 280 280 281 281 280 280 279 279 278 278 278 278 279 281 280 278 277 277 276 276 275 273 273 273 272 271 272 271 272 272
280 279 278 279 278 278 278 279 279 279 279 279 279 280 279 281 284 283 280 278 278 278 276 276 276 277 279 280 279 279 278 275 273 273 272 271 271 272 272 271 270 268 267
280 279 278 278 278 278 278 278 278 278 278 278 278 279 278 280 283 282 280 278 277 276 277 275 275 277 277 276 277 277 277 277 276 272 270 270 270 271 271 270 269 268 267
279 278 278 278 277 277 277 277 277 277 277 277 277 278 278 279 282 281 279 277 276 276 275 275 275 275 277 275 274 273 274 273 272 272 271 271 272 272 271 269 267 265 265
279 278 278 278 277 276 276 276 276 277 276 277 277 279 278 279 281 280 278 276 275 274 275 274 275 275 277 275 273 272 272 271 272 272 272 272 272 272 271 266 261 259 257
280 279 278 277 277 276 276 275 276 277 276 277 277 277 278 278 280 280 278 276 274 274 273 273 276 275 275 273 272 271 269 268 267 265 266 267 268 268 269 266 265 254 257
278 277 276 276 276 276 276 275 275 276 276 275 275 275 276 278 279 278 278 276 274 273 272 271 272 274 274 273 272 270 269 266 264 262 262 263 264 264 264 264 265 263 260
275 275 275 275 275 275 275 276 276 276 274 273 273 273 273 274 277 278 277 276 275 272 271 271 271 273 272 271 270 270 268 264 261 258 258 260 261 261 262 263 263 263 263
274 273 273 274 275 275 275 275 274 275 273 272 272 271 271 272 275 277 276 276 274 272 271 270 271 271 270 268 268 267 264 261 259 254 257 259 260 261 261 261 261 261 261
273 272 272 273 273 274 275 275 274 273 273 272 271 270 270 270 271 272 273 273 274 270 269 267 268 267 266 264 263 262 262 260 259 258 258 258 259 258 258 259 257 257 256
271 271 272 273 273 273 273 273 273 274 274 272 271 270 269 268 270 272 271 270 268 267 262 261 261 261 261 260 260 259 259 258 257 257 256 255 256 256 256 257 256 254 250
269 270 271 271 271 271 270 271 275 275 276 275 274 271 270 272 274 275 275 274 272 269 260 259 259 259 259 259 258 257 257 256 255 255 254 254 254 254 254 254 254 249 251
270 270 270 270 269 269 269 269 268 273 275 275 275 274 272 273 274 274 275 274 273 266 258 258 258 258 257 257 256 256 255 255 254 253 253 251 252 251 250 250 251 252 250
269 269 269 268 269 269 268 269 269 269 269 270 274 272 273 273 273 273 273 270 261 258 256 255 255 254 254 254 254 253 253 252 251 251 249 247 244 246 245 247 249 246 247
268 267 267 267 268 268 267 267 266 266 265 262 263 268 269 270 271 272 271 259 258 256 254 252 251 252 252 251 251 247 246 246 246 244 241 242 242 241 242 245 247 248 249
265 265 265 264 264 264 264 264 264 263 263 262 261 262 259 261 260 259 257 256 255 254 253 251 251 249 247 244 243 242 240 239 240 240 241 241 242 242 244 243 244 246 246
263 263 263 263 263 263 263 262 262 262 261 261 261 260 262 258 259 257 256 254 254 253 252 250 247 246 244 242 239 238 239 242 240 241 241 242 240 239 242 245 246 245 247
262 261 261 261 261 261 261 261 261 261 260 259 258 258 266 259 257 255 254 252 250 249 248 247 246 244 243 242 242 241 242 243 242 242 242 242 241 241 241 244 245 246 246
261 260 260 260 260 260 259 259 259 258 258 257 256 255 253 252 251 249 249 248 246 245 243 240 241 241 242 242 243 244 245 246 246 244 243 241 242 243 241 244 245 245 246
260 259 259 259 259 258 257 256 255 254 252 251 250 249 250 248 247 248 247 244 241 241 239 241 243 244 243 244 243 243 245 246 243 245 243 243 244 244 241 244 246 246 247
257 257 255 253 251 250 249 248 248 247 247 248 247 246 246 246 245 243 242 242 242 242 243 244 244 245 245 245 245 244 245 250 250 246 244 244 244 244 246 246 247 248 247
248 248 247 246 246 246 247 248 247 246 246 246 246 245 244 244 244 242 242 241 243 244 244 244 244 245 245 246 246 247 248 252 249 248 247 247 246 247 247 247 246 247 248
Wind_Speed
4 4 5 4 4 4 4 4 4 4 5 5 5 5 5 5 5 5 6 6 8 7 6 7 7 5 4 4 4 4 4 3 2 2 1 3 3 5 8 7 7 6 8
6 6 6 5 5 5 5 4 4 5 5 5 5 5 5 5 5 5 6 5 7 8 6 6 6 6 6 4 3 5 3 3 2 1 1 1 2 3 8 8 8 7 8
6 6 5 5 4 5 5 5 4 5 5 5 5 5 5 4 5 5 7 7 7 8 6 7 6 4 5 4 4 3 2 3 1 1 1 1 2 3 6 5 8 8 8
8 7 7 7 7 6 5 5 5 5 5 5 5 5 5 5 5 6 7 8 9 8 9 7 6 5 5 4 4 3 3 2 1 0 1 2 1 2 2 5 8 7 10
10 10 9 7 6 6 6 6 6 6 5 5 6 5 5 6 5 7 7 8 9 9 8 8 6 4 8 6 3 3 1 1 2 2 2 2 2 4 8 8 7 8 9
13 13 9 10 9 9 9 8 7 7 7 6 5 6 5 5 13 14 11 8 8 9 8 7 5 4 5 7 8 7 5 3 4 2 3 4 6 7 7 7 7 8 6
12 11 11 10 9 9 8 8 8 8 7 6 6 6 5 5 14 14 16 8 7 6 7 6 4 3 3 3 6 7 8 11 11 6 5 5 5 8 8 9 10 8 6
14 13 12 12 11 10 10 10 9 9 10 9 8 7 8 6 14 13 15 10 8 8 6 5 5 2 4 4 4 5 5 7 8 6 6 5 5 7 8 8 8 8 8
15 16 16 16 14 13 12 11 9 9 8 7 7 8 9 9 14 14 11 9 10 9 8 5 4 3 6 6 4 5 3 5 7 11 8 7 9 11 11 4 5 6 3
14 13 11 12 12 12 12 11 9 9 9 7 8 5 6 10 13 13 10 5 9 7 8 5 6 5 6 6 4 4 3 5 6 6 5 6 8 9 12 9 5 1 2
7 9 11 12 12 12 11 9 10 9 9 8 7 4 3 5 10 11 11 6 7 6 5 5 2 6 6 7 6 4 4 5 6 4 3 4 5 6 6 7 7 6 3
8 10 10 11 10 10 12 9 10 11 11 9 9 7 3 3 6 10 10 8 10 6 6 4 2 7 7 6 6 7 6 6 3 3 2 3 4 5 6 7 8 8 6
8 9 9 9 9 10 12 12 9 10 9 10 9 8 6 4 4 11 10 9 10 7 5 6 8 7 7 6 8 6 4 3 2 1 2 3 4 5 7 6 6 7 8
8 9 9 10 8 8 6 7 8 9 9 9 9 9 7 6 5 5 5 5 10 8 7 4 6 6 6 7 4 3 2 2 2 2 2 3 3 3 4 5 4 5 6
6 6 7 7 8 8 6 5 5 4 6 7 6 7 9 8 6 10 9 6 6 8 7 3 2 2 3 3 2 1 1 1 2 2 2 3 3 4 5 5 4 4 2
7 6 6 6 6 7 8 6 9 10 9 10 11 8 5 10 14 15 15 14 15 15 3 2 3 2 2 2 2 2 1 1 2 2 1 2 3 4 5 5 5 1 6
7 8 6 7 7 8 9 9 9 9 13 14 16 14 13 13 13 12 12 13 13 10 2 3 3 3 3 3 3 2 1 0 1 1 2 1 2 3 4 4 5 5 6
5 9 7 8 7 8 8 8 8 10 10 8 15 13 15 13 11 12 12 11 4 2 1 3 3 3 3 3 3 3 2 1 1 2 2 2 3 3 3 4 5 3 4
3 2 3 4 5 6 6 6 5 5 6 5 4 7 1 11 10 12 12 2 3 2 3 2 3 3 3 3 3 2 2 2 2 2 2 3 3 3 4 4 5 7 7
4 7 6 5 6 5 5 6 5 5 6 5 5 4 3 4 1 1 2 1 2 2 3 3 3 3 4 4 3 3 2 2 2 3 3 3 3 3 4 4 3 5 6
4 4 7 5 5 5 5 6 5 5 5 4 4 4 11 4 5 3 3 3 4 3 4 3 4 4 4 4 3 3 3 3 3 3 3 4 4 3 4 5 5 5 6
3 3 3 3 4 4 3 4 4 4 4 5 3 4 15 5 4 4 4 4 4 4 3 4 4 4 5 4 4 4 4 5 4 4 5 5 4 4 3 4 5 6 6
3 3 3 3 3 4 3 3 3 3 3 3 4 4 2 3 3 3 4 4 4 4 4 4 4 4 4 4 5 5 5 7 6 5 5 4 4 4 4 5 6 5 6
3 3 3 2 2 2 2 3 2 3 3 3 3 3 3 3 4 5 4 4 4 4 3 3 4 6 5 5 4 5 6 6 4 6 7 5 6 5 4 5 7 7 8
2 2 3 3 3 3 3 2 2 2 2 3 3 3 3 3 4 5 5 4 4 3 5 5 5 7 9 10 8 9 9 13 10 7 5 7 8 9 8 7 9 8 10
3 3 3 3 3 3 4 4 4 3 4 4 4 4 4 5 4 4 3 3 4 5 6 4 6 9 9 9 10 11 11 13 12 13 9 8 9 9 8 10 10 8 11
Wind_Direction
178 169 159 159 141 131 125 122 115 111 111 101 98 92 85 86 84 87 84 84 88 87 78 83 78 66 66 57 53 61 51 38 101 329 333 352 342 350 349 342 348 338 339
186 179 181 173 163 149 141 135 133 123 112 116 110 104 100 93 98 100 105 97 103 98 90 87 85 87 75 70 57 70 76 75 125 174 288 307 271 25 334 337 342 348 337
184 180 179 176 170 161 155 151 140 133 131 123 118 114 108 103 99 91 102 102 96 93 87 86 81 83 82 77 74 78 77 81 101 179 273 302 297 34 335 339 347 339 338
186 182 181 181 184 177 163 157 153 149 136 125 120 124 121 112 108 111 110 105 103 93 89 86 74 62 72 79 71 45 45 80 74 120 223 265 275 323 309 348 346 354 332
184 190 192 178 171 163 164 162 158 155 148 144 138 131 132 126 126 114 111 108 111 104 95 93 70 64 88 87 98 69 34 74 47 48 42 343 354 3 6 342 334 334 313
192 198 177 173 173 179 175 170 162 152 150 147 146 143 140 137 140 132 122 123 126 127 127 118 110 77 82 96 93 82 90 68 57 24 28 17 6 359 352 348 345 351 347
192 184 180 176 179 178 169 167 169 165 153 152 146 139 130 133 143 141 132 123 123 120 133 136 111 57 84 94 98 83 66 61 59 50 35 25 356 356 347 353 356 346 315
195 186 178 176 179 172 172 178 171 167 166 162 158 152 141 148 151 148 137 126 124 126 119 116 125 93 106 110 113 95 86 63 53 42 30 8 5 5 7 10 353 329 295
198 194 186 180 176 174 179 176 169 166 165 163 158 157 152 143 160 156 146 138 137 134 127 113 129 102 91 105 115 110 91 63 48 32 24 21 24 18 26 25 15 5 313
204 195 179 173 172 176 175 172 169 167 165 162 162 154 154 141 158 168 159 148 145 146 138 116 131 125 107 101 101 102 86 47 27 16 12 17 27 20 26 27 7 15 337
165 160 166 169 170 168 162 163 162 161 155 152 151 132 128 134 151 163 163 162 157 151 151 145 130 124 112 99 87 80 68 74 33 24 357 17 23 24 20 7 359 355 352
144 158 166 159 160 154 158 161 167 160 157 157 152 145 131 102 149 153 156 151 151 143 144 133 149 124 114 100 78 88 87 83 58 10 5 20 12 11 1 348 343 344 326
156 150 157 149 159 160 163 164 173 172 171 165 165 160 153 143 153 154 147 139 136 127 133 148 142 121 127 69 75 84 81 70 76 40 30 17 3 346 335 332 328 328 306
159 153 156 151 155 155 165 170 180 183 180 176 167 160 157 159 152 137 137 138 131 112 110 101 131 126 115 101 65 55 58 50 37 38 27 354 342 335 328 331 328 331 317
150 154 157 151 153 151 143 167 182 183 194 182 175 161 159 173 182 172 161 150 136 143 120 105 124 132 125 115 109 120 78 41 53 26 13 342 337 336 324 336 326 334 291
153 156 155 149 150 142 134 131 136 145 156 146 150 142 138 164 180 186 178 174 159 143 98 141 162 152 175 183 204 224 235 68 30 9 345 325 326 325 314 318 309 254 295
163 151 144 146 147 147 144 149 144 160 155 157 152 156 161 176 179 186 174 152 152 131 135 163 168 177 188 203 212 220 225 220 60 305 297 279 299 290 300 295 299 304 300
148 162 162 151 163 161 160 156 154 161 162 152 156 154 165 169 177 192 165 138 121 108 131 165 173 173 198 205 214 217 235 252 215 223 210 227 231 236 277 284 290 277 286
119 132 126 120 130 138 131 125 126 112 118 108 76 121 149 161 195 198 152 141 172 169 176 175 176 184 208 214 223 229 215 217 215 216 231 228 230 201 255 250 271 285 288
90 112 104 108 113 113 120 126 131 135 133 139 143 147 122 79 213 78 91 154 186 195 175 186 187 198 208 207 212 210 235 262 258 228 240 239 237 215 243 252 250 273 279
113 120 124 118 127 140 145 147 148 151 153 161 160 157 179 173 192 179 188 199 202 203 199 193 199 210 210 202 198 206 223 243 228 242 240 244 222 238 226 240 263 256 265
97 108 112 122 127 132 133 131 136 138 144 158 144 190 206 168 169 183 197 213 213 213 203 198 207 207 203 193 200 204 225 243 243 221 231 235 232 226 229 245 253 260 265
122 125 115 109 112 118 113 115 134 151 158 157 153 172 177 170 171 192 210 218 215 221 221 203 212 238 220 219 206 205 219 235 232 197 222 225 239 235 212 240 253 259 261
127 141 148 141 142 154 156 156 141 149 137 150 159 177 195 199 204 219 222 225 222 232 217 215 219 234 236 234 219 215 224 242 216 221 206 217 245 245 213 236 254 251 261
153 165 164 165 158 156 135 130 141 145 161 180 191 200 210 214 228 232 233 224 225 227 237 221 223 233 243 246 238 229 229 245 238 206 203 212 232 238 244 245 253 259 263
150 155 162 150 161 161 165 172 194 190 206 206 210 212 209 214 218 218 224 231 245 243 247 232 231 237 242 246 246 247 245 248 241 232 217 216 224 234 231 235 244 247 261